Stevens Point, WI

2:35 AM CDT on April 26, 2017 (GMT -0500)
Stevens Point Municipal

Weather History for KSTE - September, 2012

Change the Weather History Date:

Monday, September 24, 2012

  Actual Average Record
Temperature  
Mean Temperature 49 °F -  
Max Temperature 69 °F 63 °F 87 °F (2007)
Min Temperature 29 °F 42 °F 26 °F (1950)
Degree Days  
Heating Degree Days 16    
Moisture  
Dew Point 33 °F    
Average Humidity 56    
Maximum Humidity 96    
Minimum Humidity 29    
Precipitation  
Precipitation 0.00 in - - ()
Sea Level Pressure  
Sea Level Pressure 29.92 in    
Wind  
Wind Speed 6 mph (SW)    
Max Wind Speed 21 mph    
Max Gust Speed 30 mph    
Visibility 10 miles    
Events      
Averages and records for this station are not official NWS values.
T = Trace of Precipitation, MM = Missing Value Source: NWS Daily Summary

Daily Weather History Graph

Daily Weather History Graph

Search for Another Location

Airport or City:

Trip Planner

Search our weather history database for the weather conditions in past years. The results will help you decide how hot, cold, wet, or windy it might be!

Date:

Astronomy

Sep. 24, 2012 Rise Set
Actual Time 6:48 AM CDT 6:50 PM CDT
Civil Twilight 6:19 AM CDT 7:19 PM CDT
Nautical Twilight 5:45 AM CDT 7:53 PM CDT
Astronomical Twilight 5:10 AM CDT 8:28 PM CDT
Moon 3:47 PM CDT (9/24) 12:52 AM CDT (9/24)
Length of Visible Light 13h 00m
Length of Day
12h 02m
Waxing Gibbous, 71% of the Moon is Illuminated
Sep 24
Waxing Gibbous
Sep 29
Full
Oct 8
Last Quarter
Oct 15
New
Oct 21
First Quarter

Hourly Weather History & Observations

Time (CDT) Temp. Windchill Dew Point Humidity Pressure Visibility Wind Dir Wind Speed Gust Speed Precip Events Conditions
12:15 AM 31.6 °F - 29.3 °F 91% 30.16 in 10.0 mi Calm Calm - N/A   Clear
12:35 AM 32.2 °F - 29.5 °F 90% 30.16 in 10.0 mi Calm Calm - N/A   Clear
12:55 AM 29.8 °F - 27.7 °F 92% 30.15 in 10.0 mi Calm Calm - N/A   Clear
1:15 AM 30.0 °F - 28.2 °F 93% 30.15 in 10.0 mi Calm Calm - N/A   Clear
1:55 AM 30.6 °F - 29.7 °F 96% 30.15 in 10.0 mi Calm Calm - N/A   Clear
2:15 AM 30.2 °F - 28.9 °F 95% 30.14 in 10.0 mi Calm Calm - N/A   Clear
2:35 AM 30.4 °F - 29.3 °F 96% 30.13 in 10.0 mi Calm Calm - N/A   Clear
2:55 AM 30.4 °F - 28.9 °F 94% 30.13 in 10.0 mi Calm Calm - N/A   Clear
3:15 AM 30.7 °F - 29.3 °F 94% 30.12 in 10.0 mi Calm Calm - N/A   Clear
3:35 AM 30.6 °F - 28.9 °F 94% 30.12 in 10.0 mi Calm Calm - N/A   Clear
3:55 AM 30.7 °F - 29.1 °F 94% 30.11 in 10.0 mi Calm Calm - N/A   Clear
4:15 AM 31.6 °F 27.0 °F 28.9 °F 90% 30.10 in 10.0 mi SW 4.6 mph - N/A   Clear
4:55 AM 32.2 °F 27.7 °F 28.8 °F 87% 30.09 in 10.0 mi SSW 4.6 mph - N/A   Clear
5:15 AM 31.3 °F 26.6 °F 27.9 °F 87% 30.09 in 10.0 mi SSW 4.6 mph - N/A   Clear
5:35 AM 32.0 °F 26.4 °F 28.4 °F 87% 30.08 in 10.0 mi SSW 5.8 mph - N/A   Clear
5:55 AM 32.9 °F 28.5 °F 28.9 °F 85% 30.07 in 10.0 mi SW 4.6 mph - N/A   Clear
6:15 AM 33.3 °F 30.2 °F 28.9 °F 84% 30.07 in 10.0 mi SW 3.5 mph - N/A   Clear
6:35 AM 33.6 °F - 28.8 °F 82% 30.06 in 10.0 mi Calm Calm - N/A   Clear
6:55 AM 35.2 °F 32.4 °F 29.3 °F 79% 30.06 in 10.0 mi SW 3.5 mph - N/A   Clear
7:15 AM 34.9 °F 29.9 °F 29.3 °F 80% 30.05 in 10.0 mi SW 5.8 mph - N/A   Clear
7:35 AM 36.9 °F 31.4 °F 30.2 °F 77% 30.05 in 10.0 mi SW 6.9 mph - N/A   Clear
7:55 AM 38.1 °F 32.9 °F 30.9 °F 75% 30.04 in 10.0 mi SW 6.9 mph - N/A   Clear
8:15 AM 39.4 °F 33.2 °F 30.9 °F 72% 30.03 in 10.0 mi SW 9.2 mph - N/A   Clear
8:35 AM 41.5 °F 37.1 °F 31.1 °F 66% 30.03 in 10.0 mi SW 6.9 mph - N/A   Clear
8:55 AM 44.4 °F 40.0 °F 30.6 °F 58% 30.01 in 10.0 mi SW 8.1 mph - N/A   Clear
9:15 AM 47.5 °F - 29.8 °F 50% 30.01 in 10.0 mi WSW 13.8 mph 18.4 mph N/A   Clear
9:35 AM 50.0 °F - 29.3 °F 45% 30.00 in 10.0 mi WSW 12.7 mph 16.1 mph N/A   Clear
9:55 AM 51.3 °F - 28.6 °F 42% 29.99 in 10.0 mi WSW 13.8 mph 23.0 mph N/A   Clear
10:15 AM 52.7 °F - 28.6 °F 40% 29.98 in 10.0 mi SW 13.8 mph 24.2 mph N/A   Clear
10:35 AM 54.9 °F - 29.1 °F 37% 29.97 in 10.0 mi SW 16.1 mph 21.9 mph N/A   Clear
10:55 AM 55.8 °F - 29.1 °F 36% 29.96 in 10.0 mi SW 19.6 mph 26.5 mph N/A   Clear
11:15 AM 55.9 °F - 29.7 °F 37% 29.94 in 10.0 mi SW 19.6 mph 26.5 mph N/A   Clear
11:35 AM 57.6 °F - 30.7 °F 36% 29.93 in 10.0 mi SW 19.6 mph 25.3 mph N/A   Clear
11:55 AM 59.7 °F - 31.8 °F 35% 29.91 in 10.0 mi SW 13.8 mph 24.2 mph N/A   Clear
12:15 PM 61.7 °F - 32.2 °F 33% 29.90 in 10.0 mi SW 18.4 mph 24.2 mph N/A   Clear
12:35 PM 62.4 °F - 32.4 °F 32% 29.89 in 10.0 mi SW 17.3 mph 26.5 mph N/A   Clear
12:55 PM 63.3 °F - 32.7 °F 32% 29.87 in 10.0 mi WSW 19.6 mph 27.6 mph N/A   Clear
1:15 PM 63.1 °F - 32.5 °F 32% 29.86 in 10.0 mi West 18.4 mph 29.9 mph N/A   Clear
1:55 PM 65.1 °F - 33.8 °F 31% 29.83 in 10.0 mi WSW 17.3 mph 29.9 mph N/A   Clear
2:15 PM 65.5 °F - 34.2 °F 31% 29.82 in 10.0 mi WSW 18.4 mph 28.8 mph N/A   Clear
2:35 PM 66.2 °F - 34.3 °F 31% 29.81 in 10.0 mi WSW 17.3 mph 26.5 mph N/A   Clear
2:55 PM 66.4 °F - 34.5 °F 31% 29.80 in 10.0 mi WSW 20.7 mph 29.9 mph N/A   Clear
3:15 PM 67.3 °F - 35.2 °F 31% 29.79 in 10.0 mi WSW 15.0 mph 27.6 mph N/A   Clear
3:35 PM 67.3 °F - 35.2 °F 31% 29.78 in 10.0 mi WSW 18.4 mph 26.5 mph N/A   Clear
3:55 PM 68.9 °F - 36.3 °F 30% 29.76 in 10.0 mi SW 20.7 mph 28.8 mph N/A   Clear
4:15 PM 68.9 °F - 36.3 °F 30% 29.75 in 10.0 mi WSW 13.8 mph 19.6 mph N/A   Clear
4:35 PM 69.3 °F - 35.4 °F 29% 29.75 in 10.0 mi WSW 18.4 mph 28.8 mph N/A   Clear
4:55 PM 69.1 °F - 35.6 °F 29% 29.74 in 10.0 mi WSW 15.0 mph 29.9 mph N/A   Clear
5:15 PM 69.4 °F - 36.1 °F 29% 29.74 in 10.0 mi WSW 20.7 mph 25.3 mph N/A   Clear
5:35 PM 69.1 °F - 37.0 °F 31% 29.74 in 10.0 mi SW 13.8 mph 25.3 mph N/A   Clear
5:55 PM 68.2 °F - 37.8 °F 33% 29.73 in 10.0 mi SW 11.5 mph 20.7 mph N/A   Clear
6:15 PM 67.3 °F - 38.1 °F 34% 29.73 in 10.0 mi SW 11.5 mph - N/A   Clear
6:35 PM 66.2 °F - 38.3 °F 36% 29.73 in 10.0 mi SW 8.1 mph 16.1 mph N/A   Clear
6:55 PM 64.9 °F - 38.3 °F 37% 29.73 in 10.0 mi SW 8.1 mph - N/A   Clear
7:15 PM 63.9 °F - 38.3 °F 39% 29.74 in 10.0 mi SW 8.1 mph - N/A   Clear
7:55 PM 60.4 °F - 38.7 °F 45% 29.75 in 10.0 mi SW 6.9 mph - N/A   Scattered Clouds
8:15 PM 60.8 °F - 39.2 °F 45% 29.75 in 10.0 mi SW 5.8 mph - N/A   Mostly Cloudy
8:35 PM 59.4 °F - 39.0 °F 47% 29.75 in 10.0 mi SW 6.9 mph - N/A   Scattered Clouds
8:55 PM 59.0 °F - 39.2 °F 48% 29.75 in 10.0 mi SW 8.1 mph - N/A   Clear
9:15 PM 58.5 °F - 39.2 °F 49% 29.76 in 10.0 mi SW 5.8 mph - N/A   Mostly Cloudy
9:35 PM 59.0 °F - 39.2 °F 48% 29.76 in 10.0 mi WSW 4.6 mph - N/A   Overcast
9:55 PM 58.5 °F - 39.2 °F 49% 29.77 in 10.0 mi SW 6.9 mph - N/A   Scattered Clouds
10:15 PM 57.6 °F - 39.2 °F 50% 29.77 in 10.0 mi SW 5.8 mph - N/A   Clear
10:35 PM 55.6 °F - 39.4 °F 55% 29.76 in 10.0 mi SW 5.8 mph - N/A   Clear
10:55 PM 53.1 °F - 38.5 °F 58% 29.78 in 10.0 mi SSW 4.6 mph - N/A   Clear
11:55 PM 50.4 °F - 39.0 °F 65% 29.76 in 10.0 mi SSW 4.6 mph - N/A   Clear